[[{"header":{"parameterUnit":"m.s-1","parameterCategory":1,"la1":30.2991,"la2":30.254,"lo1":-89.0895,"lo2":-89.0444,"dy":0.0017,"dx":0.0017,"nx":28,"ny":28,"refTime":"2025-04-23T03:00:00:Z","depth":0,"parameterNumber":2,"parameterNumberName":"U-component_of_WINDS"},"data":[0,0,0,0,0,0,0,0,0,0,0,0,0,0,0,0,0,0,0,0,0,0,0,0,0,0,0,0,0,0,0,0,0,0,0,0,0,0,0,0,0,0,0,0,0,0,0,0,0,0,0,0,0,0,0,0,0,0,-1.4893,-1.4894,0,-1.4938,-1.4938,-1.4939,-1.4933,-1.4932,-1.4931,-1.4931,-1.4976,-1.4978,-1.498,0,0,0,0,0,0,0,0,0,0,0,0,0,-1.4806,-1.4807,-1.4893,-1.4894,-1.4895,-1.4938,-1.4938,-1.4939,-1.4933,-1.4932,-1.4931,-1.493,-1.4976,-1.4978,-1.498,0,0,0,0,0,0,0,0,0,0,0,0,0,-1.4846,-1.4808,-1.4893,-1.4897,-1.4898,-1.4937,-1.4938,-1.4939,-1.4933,-1.4932,-1.4931,-1.493,-1.4975,-1.4978,-1.498,-1.502,0,0,-1.4989,-1.499,0,0,0,0,0,0,0,0,-1.4844,-1.4849,-1.4896,-1.4897,-1.4898,-1.4929,-1.4924,-1.4966,-1.4933,-1.492,-1.4931,-1.4929,-1.4961,-1.4965,-1.4976,-1.5022,-1.5024,-1.4989,-1.4991,-1.4992,-1.4993,0,0,0,0,0,0,0,-1.4841,-1.4847,-1.4911,-1.4896,-1.4898,-1.4897,-1.4901,-1.4932,-1.4946,-1.4921,-1.492,-1.4926,-1.4962,-1.4973,-1.4977,-1.5025,-1.4989,-1.4992,-1.4994,-1.4995,-1.5106,-1.5108,0,0,0,0,0,0,-1.4837,-1.4845,-1.4909,-1.4912,-1.4867,-1.4899,-1.4904,-1.492,-1.4946,-1.4949,-1.4927,-1.4925,-1.4969,-1.4974,-1.4979,-1.5027,-1.4992,-1.4995,-1.4997,-1.5105,-1.5107,-1.5108,0,0,0,0,0,0,-1.4835,-1.4843,-1.4908,-1.4879,-1.4887,-1.4902,-1.4919,-1.4921,-1.4933,-1.495,-1.4953,-1.4936,-1.4968,-1.4975,-1.501,-1.5028,-1.4996,-1.4999,-1.5104,-1.5106,-1.5107,-1.5123,0,0,0,0,0,0,-1.4833,-1.4842,-1.4857,-1.4879,-1.4888,-1.4938,-1.492,-1.4923,-1.4938,-1.4936,-1.4959,-1.4962,-1.4968,-1.5006,-1.5013,-1.5031,-1.5001,-1.5102,-1.5104,-1.5107,-1.5121,-1.5125,-1.5129,0,0,0,0,0,-1.483,-1.4859,-1.4858,-1.4865,-1.4907,-1.4939,-1.4944,-1.495,-1.4939,-1.4954,-1.4966,-1.4961,-1.5025,-1.5009,-1.5017,-1.5037,-1.5101,-1.5104,-1.5107,-1.5119,-1.5124,-1.5129,0,0,0,0,0,0,-1.4839,-1.4862,-1.4861,-1.4898,-1.4917,-1.4938,-1.4957,-1.4955,-1.4977,-1.4975,-1.4982,-1.4987,-1.5023,-1.5034,-1.5015,-1.5077,-1.5062,-1.5066,-1.5068,-1.5074,-1.5077,-1.5074,-1.5003,0,0,0,0,0,-1.4845,-1.4869,-1.4888,-1.492,-1.4929,-1.4942,-1.4956,-1.4959,-1.4978,-1.4986,-1.5,-1.5019,-1.5043,-1.5059,-1.5083,-1.5123,-1.5128,-1.5141,-1.5145,-1.5148,-1.5151,-1.5174,-1.518,-1.5117,-1.5117,-1.5117,0,0,-1.4859,-1.4874,-1.4889,-1.4922,-1.4937,-1.4961,-1.4948,-1.4975,-1.4993,-1.499,-1.5024,-1.5035,-1.5057,-1.5095,-1.5113,-1.5105,-1.517,-1.5151,-1.5154,-1.5156,-1.5178,-1.5184,-1.5189,-1.5119,-1.5119,-1.5119,0,0,-1.4895,-1.491,-1.4938,-1.4953,-1.4975,-1.4984,-1.4991,-1.5013,-1.502,-1.5054,-1.5053,-1.5075,-1.5117,-1.5133,-1.5147,-1.5192,-1.5189,-1.5199,-1.522,-1.5242,-1.5247,-1.5251,-1.5268,-1.5273,-1.5203,-1.5203,-1.5203,0,-1.4909,-1.4946,-1.4952,-1.498,-1.4995,-1.4993,-1.5022,-1.5037,-1.5066,-1.5076,-1.5068,-1.5121,-1.5136,-1.5178,-1.5189,-1.52,-1.5209,-1.5196,-1.5246,-1.525,-1.5254,-1.527,-1.5276,-1.5204,-1.5204,-1.5204,-1.5204,0,-1.4962,-1.4988,-1.5008,-1.5036,-1.5054,-1.5082,-1.5093,-1.511,-1.5112,-1.5121,-1.5157,-1.5175,-1.5202,-1.5213,-1.5215,-1.5256,-1.5251,-1.5244,-1.5228,-1.5261,-1.5276,-1.5282,-1.5206,-1.5205,-1.5205,-1.5205,0,0,-1.5004,-1.5037,-1.5044,-1.5057,-1.5083,-1.5103,-1.5132,-1.5159,-1.5173,-1.5194,-1.5218,-1.5255,-1.5249,-1.5264,-1.5269,-1.5288,-1.5323,-1.5279,-1.528,-1.5287,-1.537,-1.5375,-1.5381,-1.5322,-1.5323,-1.5324,-1.5368,0,-1.5044,-1.5093,-1.5101,-1.5145,-1.5169,-1.5169,-1.5194,-1.5213,-1.5223,-1.5246,-1.5257,-1.5283,-1.5273,-1.5283,-1.5302,-1.5315,-1.534,-1.5312,-1.5345,-1.5346,-1.5339,-1.5389,-1.5394,-1.5434,-1.5374,-1.5375,-1.5376,0,-1.5096,-1.5118,-1.5164,-1.5188,-1.5198,-1.522,-1.5246,-1.5268,-1.529,-1.5296,-1.5314,-1.5316,-1.5347,-1.5331,-1.5373,-1.5354,-1.5368,-1.5376,-1.5378,-1.5381,-1.5362,-1.5393,-1.5447,-1.5453,-1.5385,-1.5384,-1.5383,0,-1.5122,-1.5164,-1.5197,-1.5208,-1.5236,-1.5252,-1.5265,-1.5285,-1.5301,-1.5325,-1.5335,-1.5362,-1.5376,-1.5397,-1.5406,-1.5394,-1.5448,-1.5433,-1.5454,-1.5454,-1.5465,-1.5464,-1.5522,-1.5475,-1.5475,-1.5475,-1.5475,0,-1.5164,-1.5193,-1.5209,-1.523,-1.5262,-1.5271,-1.5303,-1.5315,-1.5334,-1.5357,-1.5359,-1.5381,-1.5393,-1.5417,-1.5425,-1.5459,-1.5466,-1.5472,-1.5473,-1.5471,-1.5471,-1.548,-1.5477,-1.5477,-1.5476,-1.5476,-1.5476,0,-1.5198,-1.521,-1.5247,-1.5271,-1.5278,-1.5301,-1.5321,-1.5342,-1.5352,-1.5382,-1.539,-1.5407,-1.5435,-1.5447,-1.5482,-1.5488,-1.5527,-1.5527,-1.5519,-1.552,-1.5541,-1.5538,-1.5606,-1.5616,-1.5563,-1.5563,-1.5564,0,-1.5224,-1.5246,-1.5273,-1.5289,-1.5302,-1.5327,-1.5344,-1.5354,-1.5372,-1.5399,-1.5416,-1.5445,-1.5468,-1.5514,-1.553,-1.5557,-1.5557,-1.5579,-1.5561,-1.5559,-1.5558,-1.5556,-1.5559,-1.5582,-1.5583,-1.5583,-1.5584,0,-1.5269,-1.5275,-1.5299,-1.5325,-1.5345,-1.5366,-1.5387,-1.54,-1.5414,-1.5434,-1.5463,-1.5481,-1.5518,-1.5546,-1.5575,-1.5588,-1.5588,-1.559,-1.5596,-1.5593,-1.5588,-1.5591,-1.5528,-1.5588,-1.5587,-1.5587,-1.5587,-1.5587,-1.53,-1.532,-1.5342,-1.5369,-1.5386,-1.5406,-1.5426,-1.544,-1.5465,-1.5495,-1.55,-1.5531,-1.5554,-1.5592,-1.5607,-1.5632,-1.5627,-1.5636,-1.5638,-1.564,-1.5642,-1.5585,-1.5638,-1.5638,-1.5637,-1.5637,-1.5637,0,-1.5345,-1.536,-1.5385,-1.5414,-1.5436,-1.5434,-1.5458,-1.5476,-1.5504,-1.5525,-1.5548,-1.5582,-1.5611,-1.5629,-1.5658,-1.5675,-1.5676,-1.5682,-1.568,-1.5684,-1.5645,-1.5636,-1.5681,-1.5681,-1.5681,-1.5681,-1.5681,-1.5681,-1.5371,-1.5405,-1.5413,-1.5456,-1.547,-1.5501,-1.5515,-1.5533,-1.555,-1.5588,-1.5612,-1.5624,-1.5644,-1.5675,-1.5701,-1.5706,-1.5716,-1.5723,-1.5727,-1.5691,-1.5686,-1.5682,-1.5674,-1.5725,-1.5725,-1.5764,-1.5764,-1.5765]},{"header":{"parameterUnit":"m.s-1","parameterCategory":1,"la1":30.2991,"la2":30.254,"lo1":-89.0895,"lo2":-89.0444,"dy":0.0017,"dx":0.0017,"nx":28,"ny":28,"refTime":"2025-04-23T03:00:00:Z","depth":0,"parameterNumber":3,"parameterNumberName":"V-component_of_WINDS"},"data":[0,0,0,0,0,0,0,0,0,0,0,0,0,0,0,0,0,0,0,0,0,0,0,0,0,0,0,0,0,0,0,0,0,0,0,0,0,0,0,0,0,0,0,0,0,0,0,0,0,0,0,0,0,0,0,0,0,0,2.8365,2.8366,0,2.843,2.8431,2.8431,2.8444,2.8444,2.8443,2.8443,2.8505,2.8507,2.8509,0,0,0,0,0,0,0,0,0,0,0,0,0,2.8249,2.8251,2.8365,2.8366,2.8367,2.843,2.8431,2.8431,2.8444,2.8444,2.8443,2.8443,2.8504,2.8506,2.8509,0,0,0,0,0,0,0,0,0,0,0,0,0,2.8305,2.8252,2.8365,2.8381,2.8383,2.8429,2.8431,2.8432,2.8445,2.8444,2.8443,2.8442,2.8503,2.8506,2.8509,2.8543,0,0,2.8519,2.852,0,0,0,0,0,0,0,0,2.8302,2.8309,2.8378,2.838,2.8382,2.8428,2.8412,2.8469,2.8445,2.8421,2.8443,2.8442,2.848,2.8485,2.8498,2.8546,2.8549,2.8519,2.8521,2.8522,2.8523,0,0,0,0,0,0,0,2.8298,2.8307,2.839,2.8379,2.8381,2.8384,2.8391,2.8423,2.8453,2.8423,2.8424,2.8432,2.8481,2.8495,2.85,2.855,2.8519,2.8522,2.8524,2.8525,2.8629,2.863,0,0,0,0,0,0,2.8292,2.8303,2.8388,2.8392,2.834,2.8386,2.8394,2.8414,2.8453,2.8458,2.8432,2.8432,2.849,2.8496,2.8502,2.8544,2.8522,2.8525,2.8527,2.8628,2.8629,2.863,0,0,0,0,0,0,2.8289,2.8299,2.8386,2.8348,2.8359,2.8389,2.8411,2.8416,2.843,2.846,2.8465,2.8442,2.849,2.8498,2.8533,2.8546,2.8527,2.853,2.8627,2.8628,2.863,2.8629,0,0,0,0,0,0,2.8286,2.8298,2.8312,2.8349,2.8361,2.8417,2.8412,2.8418,2.8436,2.8437,2.847,2.8475,2.849,2.8529,2.8536,2.855,2.8532,2.8626,2.8628,2.8629,2.8628,2.863,2.8632,0,0,0,0,0,2.8282,2.8308,2.8313,2.8323,2.838,2.8418,2.8425,2.8442,2.8437,2.8451,2.847,2.8474,2.8544,2.8532,2.8541,2.8556,2.8625,2.8627,2.8629,2.8627,2.8629,2.8632,0,0,0,0,0,0,2.827,2.8313,2.8319,2.8358,2.8384,2.842,2.8437,2.8444,2.8471,2.847,2.849,2.8497,2.8532,2.8548,2.8534,2.8591,2.8584,2.8588,2.8579,2.8582,2.8584,2.8579,2.8535,0,0,0,0,0,2.8273,2.8302,2.8337,2.8368,2.8381,2.8407,2.8424,2.8436,2.8463,2.8474,2.8496,2.8521,2.8549,2.8567,2.8594,2.8631,2.8638,2.8646,2.8648,2.8649,2.8652,2.8673,2.8676,2.8637,2.8637,2.8637,0,0,2.8277,2.8304,2.8321,2.8367,2.8388,2.8417,2.8416,2.8446,2.8467,2.8478,2.8513,2.8531,2.856,2.8597,2.8614,2.8611,2.8665,2.8652,2.8653,2.8655,2.8675,2.8679,2.8682,2.8638,2.8638,2.8638,0,0,2.83,2.8324,2.8352,2.8375,2.8409,2.8426,2.8433,2.8468,2.8481,2.8517,2.8526,2.8551,2.8598,2.8619,2.8636,2.8669,2.8673,2.8677,2.8687,2.8707,2.871,2.8713,2.8724,2.8728,2.868,2.868,2.868,0,2.83,2.8345,2.8366,2.8396,2.8415,2.8429,2.8458,2.8478,2.8518,2.8531,2.8528,2.8589,2.861,2.8651,2.866,2.8673,2.8681,2.8672,2.8708,2.8711,2.8714,2.8725,2.8729,2.868,2.868,2.868,2.868,0,2.8344,2.8375,2.8394,2.8434,2.8456,2.8485,2.851,2.8529,2.8539,2.8557,2.8594,2.862,2.8653,2.8664,2.8673,2.8707,2.8704,2.8705,2.8698,2.8718,2.8728,2.8733,2.868,2.868,2.868,2.868,0,0,2.8359,2.8413,2.8419,2.8438,2.8477,2.8501,2.8531,2.8565,2.8581,2.8609,2.8634,2.8675,2.8676,2.8695,2.8707,2.8725,2.8749,2.8723,2.8724,2.8726,2.8787,2.8786,2.8791,2.8753,2.8754,2.8754,2.8785,0,2.8386,2.8441,2.8461,2.8506,2.8534,2.8549,2.8575,2.8601,2.8619,2.8645,2.8664,2.8692,2.8692,2.8703,2.8722,2.8742,2.8761,2.874,2.8775,2.8776,2.8766,2.8796,2.8795,2.8822,2.8789,2.879,2.879,0,2.8424,2.8454,2.8502,2.8539,2.8552,2.8575,2.8608,2.8633,2.8663,2.8675,2.8697,2.8709,2.874,2.8733,2.8775,2.876,2.8776,2.8788,2.879,2.8792,2.8783,2.8799,2.8831,2.8835,2.8797,2.8797,2.8796,0,2.8429,2.8482,2.8518,2.8534,2.8578,2.8594,2.8612,2.8642,2.8662,2.8691,2.8703,2.8735,2.8752,2.8776,2.8795,2.8788,2.8836,2.883,2.8846,2.8845,2.8853,2.8852,2.8888,2.8866,2.8866,2.8865,2.8865,0,2.8456,2.8485,2.8521,2.8543,2.8575,2.8598,2.863,2.8649,2.8676,2.8701,2.8715,2.8738,2.8763,2.879,2.8805,2.8838,2.8846,2.8855,2.8859,2.8853,2.8852,2.8862,2.8861,2.8867,2.8866,2.8866,2.8866,0,2.8467,2.8493,2.8532,2.8572,2.8582,2.8604,2.8638,2.8659,2.8678,2.871,2.8719,2.8748,2.878,2.8802,2.8843,2.8853,2.8888,2.8892,2.8878,2.888,2.8894,2.8892,2.8936,2.8943,2.8917,2.8917,2.8917,0,2.8482,2.8504,2.8547,2.8566,2.8585,2.8615,2.8636,2.866,2.868,2.8718,2.8734,2.8768,2.8795,2.8845,2.8869,2.89,2.8904,2.8918,2.8909,2.8903,2.8904,2.8902,2.8904,2.8919,2.8919,2.8919,2.8919,0,2.8505,2.8517,2.8547,2.8582,2.8607,2.8635,2.8663,2.8677,2.8706,2.8729,2.8762,2.8784,2.8827,2.8859,2.8893,2.8911,2.892,2.8922,2.8927,2.8921,2.8912,2.8917,2.8881,2.8921,2.8921,2.892,2.892,2.892,2.8518,2.8539,2.8573,2.8606,2.863,2.8657,2.8679,2.8702,2.8731,2.8768,2.8781,2.8815,2.8846,2.8892,2.8911,2.8938,2.8937,2.8945,2.8946,2.8948,2.8947,2.8909,2.8945,2.8945,2.8945,2.8945,2.8945,0,2.8542,2.8565,2.8595,2.8635,2.8661,2.867,2.8702,2.8722,2.8753,2.8782,2.8809,2.8848,2.888,2.8908,2.8941,2.8957,2.8962,2.8965,2.8963,2.8967,2.8946,2.8938,2.8961,2.8961,2.8961,2.8961,2.8961,2.8961,2.8557,2.8593,2.861,2.8658,2.868,2.8716,2.8733,2.8757,2.8781,2.8824,2.8851,2.887,2.8898,2.8934,2.8963,2.8971,2.8982,2.8984,2.8992,2.8971,2.8969,2.8967,2.896,2.8986,2.8986,2.901,2.9011,2.9011]}]]